When you browse on this site, cookies collect data to enhance your experience and personalize the content and advertising you see.
Visit our Privacy Policy to learn more. By continuing to use the site, you agree to this use of cookies and data.
  • In Netherlands
  • List of Countries
  • For 7 days
  • Water Temperature
  • Weather Map
  • Weather Widgets
  • user-avatar
    Login

    Hourly Weather Hamagib

    Today, 14 October, Monday

    Time Temperature Precipitation Wind Pressure Humidity
    00:00 +10°C° 0 mm 1 mps 654 mmHg 41%
    01:00 +10°C° 0 mm 1 mps 654 mmHg 40%
    02:00 +10°C° 0 mm 1 mps 654 mmHg 39%
    03:00 +10°C° 0 mm 1 mps 654 mmHg 38%
    04:00 +10°C° 0 mm 1 mps 654 mmHg 37%
    05:00 +10°C° 0 mm 1 mps 654 mmHg 37%
    06:00 +9°C° 0 mm 1 mps 653 mmHg 36%
    07:00 +12°C° 0 mm 1 mps 654 mmHg 34%
    08:00 +13°C° 0 mm 0 mps 655 mmHg 31%
    09:00 +16°C° 0 mm 0 mps 656 mmHg 28%
    10:00 +19°C° 0 mm 1 mps 656 mmHg 28%
    11:00 +20°C° 0 mm 1 mps 657 mmHg 27%
    12:00 +20°C° 0 mm 2 mps 657 mmHg 27%
    13:00 +20°C° 0 mm 2 mps 657 mmHg 28%
    14:00 +20°C° 0 mm 2 mps 656 mmHg 30%
    15:00 +20°C° 0 mm 2 mps 656 mmHg 32%
    16:00 +19°C° 0 mm 1 mps 656 mmHg 39%
    17:00 +16°C° 0 mm 1 mps 655 mmHg 45%
    18:00 +13°C° 0 mm 1 mps 654 mmHg 52%
    19:00 +13°C° 0 mm 1 mps 654 mmHg 52%
    20:00 +13°C° 0 mm 1 mps 654 mmHg 52%
    21:00 +13°C° 0 mm 1 mps 654 mmHg 52%
    22:00 +12°C° 0 mm 1 mps 654 mmHg 49%
    23:00 +12°C° 0 mm 2 mps 654 mmHg 46%

    Tomorrow, 15 October, Tuesday

    Time Temperature Precipitation Wind Pressure Humidity
    00:00 +12°C° 0 mm 2 mps 654 mmHg 44%
    01:00 +12°C° 0 mm 2 mps 653 mmHg 41%
    02:00 +12°C° 0 mm 2 mps 653 mmHg 39%
    03:00 +10°C° 0 mm 2 mps 653 mmHg 36%
    04:00 +10°C° 0 mm 2 mps 652 mmHg 34%
    05:00 +10°C° 0 mm 2 mps 652 mmHg 33%
    06:00 +10°C° 0 mm 2 mps 652 mmHg 31%
    07:00 +13°C° 0 mm 2 mps 653 mmHg 29%
    08:00 +16°C° 0 mm 1 mps 653 mmHg 27%
    09:00 +19°C° 0 mm 1 mps 654 mmHg 25%
    10:00 +20°C° 0 mm 1 mps 654 mmHg 24%
    11:00 +22°C° 0 mm 1 mps 654 mmHg 22%
    12:00 +23°C° 0 mm 1 mps 654 mmHg 21%
    13:00 +23°C° 0 mm 1 mps 654 mmHg 22%
    14:00 +23°C° 0 mm 1 mps 653 mmHg 23%
    15:00 +23°C° 0 mm 1 mps 653 mmHg 24%
    16:00 +20°C° 0 mm 1 mps 652 mmHg 31%
    17:00 +18°C° 0 mm 1 mps 652 mmHg 37%
    18:00 +15°C° 0 mm 1 mps 651 mmHg 43%
    19:00 +15°C° 0 mm 1 mps 651 mmHg 43%
    20:00 +14°C° 0 mm 1 mps 651 mmHg 42%
    21:00 +14°C° 0 mm 1 mps 651 mmHg 42%
    22:00 +14°C° 0 mm 1 mps 651 mmHg 42%
    23:00 +13°C° 0 mm 1 mps 650 mmHg 42%

    Day after tomorrow, 16 October, Wednesday

    Time Temperature Precipitation Wind Pressure Humidity
    00:00 +13°C° 0 mm 1 mps 650 mmHg 41%
    01:00 +13°C° 0 mm 1 mps 650 mmHg 40%
    02:00 +12°C° 0 mm 1 mps 650 mmHg 39%
    03:00 +12°C° 0 mm 1 mps 650 mmHg 38%
    04:00 +12°C° 0 mm 1 mps 650 mmHg 37%
    05:00 +12°C° 0 mm 1 mps 650 mmHg 37%
    06:00 +11°C° 0 mm 1 mps 650 mmHg 36%
    07:00 +14°C° 0 mm 1 mps 651 mmHg 33%
    08:00 +16°C° 0 mm 1 mps 652 mmHg 30%
    09:00 +17°C° 0 mm 0 mps 652 mmHg 28%
    10:00 +20°C° 0 mm 1 mps 653 mmHg 27%
    11:00 +21°C° 0 mm 1 mps 653 mmHg 26%
    12:00 +20°C° 0 mm 2 mps 653 mmHg 25%
    13:00 +20°C° 0 mm 2 mps 653 mmHg 26%
    14:00 +20°C° 0 mm 2 mps 652 mmHg 28%
    15:00 +20°C° 0 mm 2 mps 652 mmHg 29%
    16:00 +19°C° 0 mm 1 mps 652 mmHg 36%
    17:00 +16°C° 0 mm 1 mps 651 mmHg 43%
    18:00 +12°C° 0 mm 0 mps 651 mmHg 50%
    19:00 +12°C° 0 mm 0 mps 651 mmHg 51%
    20:00 +12°C° 0 mm 0 mps 651 mmHg 51%
    21:00 +12°C° 0 mm 1 mps 651 mmHg 52%
    22:00 +12°C° 0 mm 1 mps 651 mmHg 51%
    23:00 +12°C° 0 mm 1 mps 651 mmHg 50%

    17 October, Thursday

    Time Temperature Precipitation Wind Pressure Humidity
    00:00 +12°C° 0 mm 1 mps 651 mmHg 49%
    01:00 +11°C° 0 mm 1 mps 651 mmHg 48%
    02:00 +11°C° 0 mm 1 mps 651 mmHg 46%
    03:00 +11°C° 0 mm 1 mps 651 mmHg 44%
    04:00 +10°C° 0 mm 2 mps 651 mmHg 43%
    05:00 +9°C° 0 mm 2 mps 651 mmHg 42%
    06:00 +9°C° 0 mm 2 mps 651 mmHg 41%
    07:00 +12°C° 0 mm 1 mps 651 mmHg 38%
    08:00 +15°C° 0 mm 1 mps 652 mmHg 35%
    09:00 +18°C° 0 mm 1 mps 653 mmHg 32%
    10:00 +19°C° 0 mm 1 mps 653 mmHg 32%
    11:00 +20°C° 0 mm 1 mps 653 mmHg 32%
    12:00 +20°C° 0 mm 2 mps 653 mmHg 31%
    13:00 +20°C° 0 mm 2 mps 653 mmHg 33%
    14:00 +20°C° 0 mm 2 mps 653 mmHg 34%
    15:00 +19°C° 0 mm 2 mps 652 mmHg 36%
    16:00 +18°C° 0 mm 1 mps 652 mmHg 43%
    17:00 +15°C° 0 mm 1 mps 651 mmHg 50%
    18:00 +14°C° 0 mm 1 mps 650 mmHg 57%
    19:00 +13°C° 0 mm 1 mps 650 mmHg 55%
    20:00 +13°C° 0 mm 1 mps 650 mmHg 53%
    21:00 +13°C° 0 mm 2 mps 650 mmHg 51%
    22:00 +12°C° 0 mm 2 mps 650 mmHg 49%
    23:00 +12°C° 0 mm 2 mps 650 mmHg 48%

    18 October, Friday

    Time Temperature Precipitation Wind Pressure Humidity
    00:00 +12°C° 0 mm 2 mps 649 mmHg 46%
    01:00 +12°C° 0 mm 2 mps 649 mmHg 46%
    02:00 +12°C° 0 mm 2 mps 649 mmHg 46%
    03:00 +10°C° 0 mm 2 mps 649 mmHg 46%
    04:00 +10°C° 0 mm 2 mps 648 mmHg 47%
    05:00 +10°C° 0 mm 2 mps 648 mmHg 48%
    06:00 +10°C° 0 mm 2 mps 648 mmHg 49%
    07:00 +13°C° 0 mm 1 mps 649 mmHg 45%
    08:00 +16°C° 0 mm 1 mps 650 mmHg 41%
    09:00 +17°C° 0 mm 0 mps 650 mmHg 37%
    10:00 +20°C° 0 mm 1 mps 651 mmHg 35%
    11:00 +21°C° 0 mm 1 mps 651 mmHg 33%
    12:00 +21°C° 0 mm 2 mps 651 mmHg 31%
    13:00 +21°C° 0 mm 2 mps 650 mmHg 32%
    14:00 +21°C° 0 mm 2 mps 650 mmHg 32%
    15:00 +20°C° 0 mm 2 mps 650 mmHg 33%
    16:00 +19°C° 0 mm 1 mps 650 mmHg 40%
    17:00 +16°C° 0 mm 1 mps 649 mmHg 46%
    18:00 +13°C° 0 mm 0 mps 648 mmHg 53%
    19:00 +13°C° 0 mm 0 mps 649 mmHg 52%
    20:00 +14°C° 0 mm 1 mps 649 mmHg 51%
    21:00 +13°C° 0 mm 1 mps 649 mmHg 50%
    22:00 +13°C° 0 mm 1 mps 649 mmHg 50%
    23:00 +13°C° 0 mm 1 mps 649 mmHg 50%

    19 October, Saturday

    Time Temperature Precipitation Wind Pressure Humidity
    00:00 +12°C° 0 mm 1 mps 649 mmHg 50%
    01:00 +11°C° 0 mm 0 mps 649 mmHg 50%
    02:00 +11°C° 0 mm 0 mps 649 mmHg 50%
    03:00 +10°C° 0 mm 0 mps 649 mmHg 51%
    04:00 +10°C° 0 mm 0 mps 649 mmHg 51%
    05:00 +10°C° 0 mm 0 mps 649 mmHg 52%
    06:00 +10°C° 0 mm 0 mps 650 mmHg 53%
    07:00 +11°C° 0 mm 0 mps 650 mmHg 52%
    08:00 +13°C° 0 mm 1 mps 651 mmHg 52%
    09:00 +15°C° 0 mm 1 mps 651 mmHg 51%
    10:00 +15°C° 0.1 mm 1 mps 652 mmHg 51%
    11:00 +16°C° 0.1 mm 2 mps 652 mmHg 51%
    12:00 +17°C° 0.1 mm 2 mps 652 mmHg 51%
    13:00 +17°C° 0 mm 2 mps 652 mmHg 53%
    14:00 +17°C° 0 mm 2 mps 652 mmHg 55%
    15:00 +17°C° 0 mm 2 mps 652 mmHg 56%
    16:00 +15°C° 0 mm 1 mps 652 mmHg 64%
    17:00 +14°C° 0 mm 1 mps 651 mmHg 72%
    18:00 +13°C° 0 mm 1 mps 651 mmHg 79%
    19:00 +12°C° 0 mm 1 mps 651 mmHg 81%
    20:00 +12°C° 0 mm 1 mps 651 mmHg 83%
    21:00 +12°C° 0 mm 1 mps 651 mmHg 85%
    22:00 +11°C° 0.1 mm 1 mps 651 mmHg 86%
    23:00 +11°C° 0.1 mm 1 mps 651 mmHg 86%
    Show more